TimeEDT,TemperatureF,Dew PointF,Humidity,Sea Level PressureIn,VisibilityMPH,Wind Direction,Wind SpeedMPH,Gust SpeedMPH,PrecipitationIn,Events,Conditions,WindDirDegrees,DateUTC
12:54 AM,60.1,57.0,90,30.21,8.0,North,4.6,-,N/A,,Overcast,10,2013-04-16 04:54:00
1:54 AM,60.1,57.0,90,30.20,9.0,NNE,5.8,-,N/A,,Overcast,20,2013-04-16 05:54:00
2:54 AM,60.1,57.0,90,30.20,9.0,NNE,3.5,-,N/A,,Overcast,30,2013-04-16 06:54:00
3:54 AM,60.1,57.0,90,30.20,9.0,Calm,Calm,-,N/A,,Overcast,0,2013-04-16 07:54:00
4:35 AM,60.8,57.2,88,30.21,9.0,Calm,Calm,-,N/A,,Overcast,0,2013-04-16 08:35:00
4:54 AM,60.1,57.0,90,30.20,9.0,Calm,Calm,-,N/A,,Overcast,0,2013-04-16 08:54:00
5:54 AM,59.0,57.0,93,30.21,7.0,Calm,Calm,-,N/A,,Overcast,0,2013-04-16 09:54:00
6:14 AM,57.2,57.2,100,30.22,7.0,Calm,Calm,-,N/A,,Overcast,0,2013-04-16 10:14:00
6:52 AM,59.0,57.2,94,30.23,7.0,Calm,Calm,-,N/A,,Overcast,0,2013-04-16 10:52:00
6:54 AM,59.0,57.0,93,30.22,7.0,Calm,Calm,-,N/A,,Overcast,0,2013-04-16 10:54:00
7:09 AM,59.0,57.2,94,30.23,6.0,Calm,Calm,-,N/A,,Overcast,0,2013-04-16 11:09:00
7:44 AM,60.8,57.2,88,30.24,7.0,Calm,Calm,-,N/A,,Overcast,0,2013-04-16 11:44:00
7:54 AM,61.0,57.9,90,30.24,7.0,Calm,Calm,-,N/A,,Overcast,0,2013-04-16 11:54:00
8:13 AM,62.6,57.2,82,30.25,9.0,Calm,Calm,-,N/A,,Mostly Cloudy,0,2013-04-16 12:13:00
8:26 AM,62.6,57.2,82,30.26,9.0,Calm,Calm,-,N/A,,Scattered Clouds,0,2013-04-16 12:26:00
8:54 AM,64.9,59.0,81,30.26,10.0,Calm,Calm,-,N/A,,Partly Cloudy,0,2013-04-16 12:54:00
9:06 AM,64.4,59.0,83,30.27,10.0,Calm,Calm,-,N/A,,Mostly Cloudy,0,2013-04-16 13:06:00
9:54 AM,64.9,60.1,84,30.28,10.0,Calm,Calm,-,N/A,,Overcast,0,2013-04-16 13:54:00
10:42 AM,66.2,60.8,83,30.29,10.0,Calm,Calm,-,N/A,,Overcast,0,2013-04-16 14:42:00
10:54 AM,66.9,60.1,79,30.29,10.0,Variable,3.5,-,N/A,,Overcast,0,2013-04-16 14:54:00
11:43 AM,69.8,60.8,73,30.31,10.0,SW,3.5,-,N/A,,Overcast,230,2013-04-16 15:43:00
11:54 AM,70.0,61.0,73,30.30,10.0,Calm,Calm,-,N/A,,Overcast,0,2013-04-16 15:54:00
12:05 PM,71.6,60.8,69,30.30,10.0,Calm,Calm,-,N/A,,Overcast,0,2013-04-16 16:05:00
12:54 PM,71.1,60.1,68,30.28,10.0,Calm,Calm,-,N/A,,Overcast,0,2013-04-16 16:54:00
1:54 PM,72.0,60.1,66,30.26,10.0,South,5.8,-,0.00,,Overcast,190,2013-04-16 17:54:00
2:54 PM,77.0,61.0,58,30.23,10.0,East,8.1,-,N/A,,Mostly Cloudy,100,2013-04-16 18:54:00
3:54 PM,75.0,57.9,55,30.20,10.0,Calm,Calm,-,N/A,,Clear,0,2013-04-16 19:54:00
4:54 PM,77.0,57.0,50,30.19,10.0,SSE,6.9,-,N/A,,Mostly Cloudy,150,2013-04-16 20:54:00
5:54 PM,77.0,57.0,50,30.19,10.0,South,4.6,-,N/A,,Clear,190,2013-04-16 21:54:00
6:54 PM,75.9,55.0,48,30.19,10.0,Calm,Calm,-,N/A,,Clear,0,2013-04-16 22:54:00
7:54 PM,71.1,57.0,61,30.19,10.0,Calm,Calm,-,N/A,,Clear,0,2013-04-16 23:54:00
8:54 PM,66.9,57.9,73,30.20,10.0,Calm,Calm,-,N/A,,Clear,0,2013-04-17 00:54:00
9:54 PM,64.0,57.9,80,30.22,10.0,Calm,Calm,-,N/A,,Clear,0,2013-04-17 01:54:00
10:54 PM,62.1,57.9,86,30.22,10.0,Calm,Calm,-,N/A,,Clear,0,2013-04-17 02:54:00
11:54 PM,62.1,57.0,84,30.22,10.0,Calm,Calm,-,N/A,,Partly Cloudy,0,2013-04-17 03:54:00